Presure
200 216 225 219 222 186 180 169 158 169 203 239 230 217 208 207 211 208 201 190 182 213 184 171 158 182 168 198 196 183 213 196 192 198 194 215 223 227 225 226 224 217 209 205 206 198 191
214 209 197 157 160 179 185 200 217 175 195 203 177 196 178 173 121 138 172 163 168 168 175 201 159 176 159 161 164 195 185 189 177 180 180 191 183 232 183 217 212 210 208 212 217 218 189
188 171 198 206 199 172 188 182 180 188 177 180 175 171 172 184 168 159 163 161 163 159 199 186 161 169 154 180 191 146 147 145 176 166 197 184 184 190 187 172 246 242 204 230 227 222 220
167 172 168 165 161 169 166 163 160 176 173 163 159 158 159 156 157 168 174 171 184 163 175 176 148 193 161 177 178 175 190 181 196 186 151 185 146 174 164 167 203 200 216 176 185 188 190
155 159 158 166 129 171 142 157 157 152 155 155 160 169 164 161 157 157 177 178 161 168 172 163 153 150 156 134 161 161 177 154 174 172 142 175 197 156 187 175 169 186 182 194 198 194 192
154 132 163 166 161 165 146 159 167 170 165 178 164 173 165 183 172 168 165 154 162 153 156 143 145 161 146 154 157 167 159 160 165 165 158 172 141 162 141 164 185 190 155 196 187 183 200
172 173 155 181 171 161 152 169 159 153 135 174 164 171 168 159 154 151 143 200 165 155 145 142 156 157 162 173 133 144 174 162 165 150 143 159 174 133 179 167 179 159 147 195 157 208 207
152 161 167 152 170 169 155 158 156 187 158 168 172 159 144 160 170 158 153 148 141 151 147 155 168 157 142 141 148 144 152 161 170 163 161 153 162 153 153 159 147 179 179 196 197 195 176
162 151 149 150 160 162 154 153 150 159 182 161 137 177 166 158 145 150 156 175 161 174 157 136 159 141 170 158 162 156 160 153 150 167 175 171 162 154 160 161 178 173 166 178 168 209 198
160 159 152 151 162 166 161 162 163 150 149 173 179 152 152 164 159 163 162 163 163 168 148 151 164 170 168 147 143 160 148 158 144 172 179 151 159 164 151 157 168 147 176 213 166 204 211
160 154 153 159 162 148 162 145 133 153 165 160 153 129 150 171 172 155 158 162 170 142 150 173 168 161 155 167 168 151 162 160 167 169 138 174 147 162 181 160 148 152 191 183 204 216 213
155 163 154 159 155 145 158 163 154 161 150 151 149 142 163 162 159 157 160 179 169 168 156 169 141 157 165 158 158 154 154 156 166 160 167 156 174 172 173 184 166 177 175 183 191 172 173
149 153 158 146 139 144 158 154 160 154 153 153 162 153 143 140 164 155 152 163 154 162 150 160 163 153 137 167 153 152 166 159 156 162 148 162 153 147 164 134 164 178 173 175 200 174 194
163 161 163 156 139 161 155 155 143 151 149 159 148 142 167 159 161 145 145 161 165 159 167 162 172 125 162 158 159 160 137 162 161 162 172 169 176 173 185 182 176 170 168 182 187 189 211
161 165 153 158 176 161 156 162 161 161 154 159 155 159 146 161 147 162 157 161 158 168 173 154 157 148 148 151 143 153 155 139 155 163 164 171 172 166 180 176 141 170 183 187 177 195 211
126 155 162 156 164 160 169 159 145 153 157 164 143 150 162 158 157 149 156 165 148 159 159 156 150 151 150 157 154 156 153 151 167 166 148 164 171 166 171 181 175 177 163 187 168 188 219
154 149 146 153 139 149 164 164 150 169 158 161 154 143 161 157 138 152 137 144 147 144 150 164 145 158 166 151 156 158 150 160 160 169 153 155 167 169 169 181 173 176 183 169 172 167 156
146 166 121 166 160 162 130 151 168 153 130 158 149 143 154 174 143 143 146 163 150 162 167 155 159 164 146 160 163 157 142 135 166 160 144 167 183 164 169 175 173 184 190 190 194 242 226
165 167 157 166 169 142 162 171 161 169 170 158 164 174 164 155 138 138 153 142 166 159 152 165 173 169 154 150 154 128 166 156 170 161 162 181 180 151 180 165 184 194 188 182 169 217 216
162 141 174 147 153 170 138 169 155 134 156 170 147 149 159 146 149 143 137 161 159 158 158 148 152 153 149 131 145 173 127 146 174 165 160 168 163 137 150 179 184 194 169 190 226 223 231
167 146 156 151 167 135 161 160 173 143 159 141 165 150 156 144 146 161 160 145 156 156 174 174 143 140 135 154 143 160 169 144 168 163 179 150 176 155 185 189 188 196 184 211 233 209 242
174 164 170 168 162 136 154 169 164 173 159 168 144 155 148 176 160 134 153 152 162 153 126 156 167 165 171 165 173 176 171 160 176 167 137 150 183 185 194 186 189 191 178 201 175 231 228
143 172 150 163 167 169 151 146 166 163 151 172 175 173 144 160 169 167 167 148 166 171 174 165 143 146 170 157 143 158 173 168 186 138 171 175 147 194 193 194 192 193 194 221 228 224 224
170 167 174 174 168 169 157 151 185 173 177 166 157 168 152 142 163 163 169 142 142 179 153 163 166 182 167 186 172 172 167 187 162 168 188 183 199 178 197 167 224 192 185 227 230 218 213
163 168 163 151 166 160 162 167 185 174 185 155 160 182 173 180 171 186 166 187 186 189 162 173 175 177 156 168 187 168 146 190 193 167 198 189 184 192 152 186 203 204 227 227 227 217 204
179 173 153 168 149 162 170 174 180 179 157 168 171 169 169 178 155 181 186 157 179 175 184 182 189 180 165 153 192 193 190 192 175 162 195 189 183 185 158 203 225 188 180 230 228 231 223
160 164 154 167 171 149 175 172 172 183 176 184 180 189 186 184 186 171 169 169 169 177 167 164 185 158 191 194 181 184 175 183 200 189 187 180 186 168 203 241 200 240 231 224 233 217 233
173 178 174 176 168 171 159 171 155 164 166 177 177 182 170 161 157 177 177 183 184 178 147 178 166 171 171 174 179 194 172 145 170 179 181 186 188 202 247 236 183 239 223 239 224 231 233
181 182 171 179 181 180 149 182 177 181 181 178 183 183 185 143 169 187 176 178 193 191 175 193 172 184 194 194 160 147 195 194 165 194 185 196 197 233 244 235 239 225 240 215 233 224 269
Wind_Speed
14 19 21 19 22 16 15 14 15 14 12 7 7 7 6 7 12 12 8 7 7 3 10 8 18 15 19 23 25 22 28 26 27 34 30 30 26 29 26 26 26 26 28 29 34 39 40
7 6 8 16 15 10 7 6 3 13 5 2 11 4 7 11 18 16 5 16 13 12 15 12 16 16 17 18 20 27 25 30 21 24 25 28 26 25 25 28 30 30 30 30 30 33 39
10 12 9 8 8 12 4 4 5 3 6 4 4 8 8 6 9 15 12 13 13 16 11 13 17 18 19 24 27 23 24 27 30 24 49 40 42 47 38 24 20 20 29 26 30 33 36
11 11 13 17 17 11 14 16 17 7 7 13 17 20 18 21 21 11 12 13 11 16 13 15 21 19 21 27 28 37 43 44 47 46 30 45 32 45 32 25 39 43 28 36 40 38 36
18 15 15 15 22 10 21 18 18 20 20 21 20 17 17 20 23 21 12 12 18 16 14 18 22 23 24 28 27 27 39 23 47 41 35 43 44 33 46 41 37 47 35 39 28 37 31
23 25 18 18 18 17 23 22 20 17 20 16 21 19 18 12 18 18 20 19 18 21 22 22 24 22 26 25 24 31 25 29 39 37 30 37 38 35 39 38 52 49 44 44 42 37 41
15 11 23 10 15 21 25 13 18 23 24 17 21 21 23 24 21 23 23 16 19 19 22 25 21 22 18 34 33 31 48 29 31 34 38 30 42 48 50 40 54 43 46 50 46 42 38
30 20 12 14 14 17 22 21 21 19 24 21 23 25 27 25 22 25 27 28 23 26 21 21 23 23 34 36 34 33 32 28 53 32 37 39 36 41 42 40 48 50 54 59 50 48 48
22 32 29 28 22 21 24 24 25 20 18 24 25 19 20 29 29 33 27 19 28 19 24 33 31 34 32 28 31 33 32 32 33 47 57 45 43 41 38 42 64 50 53 58 47 53 46
28 29 30 31 21 22 23 22 24 29 28 23 20 35 36 28 29 24 23 22 26 26 33 33 26 36 37 38 39 40 43 39 43 58 59 49 44 45 49 46 54 55 55 67 51 56 53
32 35 33 27 25 34 28 35 31 29 28 27 28 30 38 33 31 32 28 24 34 34 29 40 34 29 33 45 50 41 49 48 55 57 52 56 51 54 68 49 59 61 79 65 70 64 55
39 35 36 33 33 39 29 32 27 31 35 30 31 34 37 37 30 34 29 43 33 33 34 40 42 33 44 36 39 47 48 46 61 47 59 48 65 64 64 75 64 67 69 74 70 64 61
42 40 39 44 43 43 32 32 37 33 34 39 35 31 34 36 41 37 40 36 29 41 38 35 40 36 49 50 44 51 52 51 46 54 50 59 57 63 62 55 67 73 67 76 81 61 68
47 45 44 44 51 39 38 36 48 38 41 38 41 43 44 41 44 39 38 43 49 36 47 38 51 49 44 43 48 50 59 62 58 63 69 66 71 71 85 81 76 71 71 84 72 85 82
55 51 45 46 46 46 42 44 42 41 43 42 37 43 41 43 40 43 40 42 45 51 58 37 39 42 50 46 56 56 55 68 65 70 66 76 68 67 85 77 72 75 84 93 76 101 90
60 55 52 49 51 49 49 46 47 44 44 50 48 43 50 42 35 45 40 46 41 37 40 41 44 46 53 60 54 57 58 60 76 78 64 73 76 73 76 89 81 79 80 100 91 101 95
56 63 55 50 53 55 56 55 49 51 49 51 46 53 50 43 50 35 47 45 42 48 45 57 53 55 62 60 62 62 61 74 77 87 69 76 81 83 75 100 86 92 89 90 92 95 77
57 66 51 63 61 61 55 54 59 53 52 55 49 53 46 64 47 49 47 58 47 65 67 50 58 66 59 65 66 65 65 63 83 79 70 86 92 76 77 86 90 95 107 108 119 102 98
73 70 62 70 66 55 64 68 63 67 64 58 60 63 58 46 61 58 57 57 69 60 60 72 77 74 62 63 66 56 83 75 89 82 81 93 92 75 91 86 99 110 106 93 98 108 100
76 66 79 64 68 69 61 69 57 60 54 67 49 50 57 54 53 57 63 61 63 59 62 62 62 68 67 60 69 86 59 76 87 80 83 82 84 61 81 90 92 113 90 122 112 111 104
87 73 78 67 80 65 69 66 74 63 61 62 63 57 58 58 66 70 63 68 66 71 80 82 72 74 66 74 77 77 86 83 83 83 92 87 83 93 97 105 102 122 101 118 110 107 106
94 87 85 86 79 71 58 78 76 80 67 79 65 70 65 77 71 69 62 67 72 75 59 71 81 82 89 78 88 90 83 79 91 80 61 89 94 99 114 96 111 114 94 129 95 106 104
73 98 74 85 85 91 71 66 79 77 67 85 84 80 68 66 78 80 79 75 81 87 87 76 74 75 84 86 67 85 89 80 101 65 93 87 78 111 116 122 120 114 125 100 104 105 107
101 95 98 93 86 88 80 69 90 81 86 78 72 75 71 71 75 78 83 76 75 94 80 77 85 92 78 99 87 82 94 103 89 100 109 113 125 86 128 94 124 116 99 106 103 105 108
101 103 90 76 83 79 79 82 91 90 95 71 73 93 83 88 82 93 82 92 91 92 76 87 91 89 79 75 103 83 70 110 113 80 124 109 98 120 78 100 125 130 113 108 107 108 108
105 107 84 98 76 82 92 98 97 91 78 84 82 87 78 91 77 91 96 73 86 80 97 96 105 91 80 87 111 112 113 113 97 91 121 113 98 107 84 129 129 100 84 107 109 108 114
92 102 84 97 103 74 108 101 98 104 100 98 106 105 101 101 101 82 81 76 81 87 82 83 105 79 117 117 93 103 93 114 126 110 109 98 109 94 131 114 108 105 110 108 112 116 115
110 114 104 108 101 106 84 99 81 88 87 107 101 108 88 79 67 93 95 101 103 98 76 90 77 94 84 86 98 124 91 76 85 97 100 110 113 130 106 113 91 110 108 113 115 117 121
117 117 107 113 116 116 77 116 111 115 116 110 111 110 114 53 84 109 90 95 109 107 89 108 89 104 119 122 68 74 110 110 84 114 101 118 119 109 104 106 110 109 112 116 117 121 131
Wind_Direction
257 260 261 264 268 262 265 271 289 279 305 331 342 323 335 355 13 332 346 342 316 21 355 321 308 332 328 10 7 358 13 13 14 12 8 1 340 324 321 316 308 304 294 287 281 276 273
225 219 248 275 276 273 254 237 153 280 296 263 293 331 284 296 283 289 320 300 306 321 319 4 318 343 324 325 331 6 1 8 348 351 347 357 350 336 325 324 322 315 310 306 299 296 282
165 259 133 134 154 258 166 200 227 146 247 239 226 275 282 352 294 300 305 308 313 308 20 358 332 351 319 8 13 312 311 305 358 332 4 349 354 351 345 299 320 319 324 321 317 316 314
253 214 239 257 269 252 263 273 287 249 254 290 293 295 289 291 295 305 321 320 338 332 331 329 312 15 337 0 6 11 10 11 6 3 312 354 286 347 297 302 348 337 347 314 321 313 306
267 266 263 262 277 247 275 275 281 283 284 286 292 292 282 294 288 294 300 320 305 326 341 337 329 321 332 285 345 343 11 327 7 6 278 0 354 313 350 331 320 335 311 320 323 319 310
255 269 259 251 260 260 270 276 277 279 278 300 292 303 295 301 306 310 312 307 318 319 329 309 317 340 306 321 325 1 333 340 350 347 335 356 295 334 281 329 346 340 291 327 318 307 331
247 266 254 273 249 257 272 286 284 283 282 298 298 291 296 300 292 302 292 346 302 304 316 313 316 320 321 352 288 311 1 340 349 313 307 330 347 281 347 341 346 309 272 339 282 336 335
250 248 258 268 268 269 270 275 278 294 286 285 285 287 295 294 281 296 304 307 306 309 293 290 327 307 296 300 303 301 305 337 352 339 332 317 326 313 313 315 294 345 340 339 330 336 302
240 250 258 262 268 268 268 267 276 279 291 280 272 288 284 282 293 297 295 308 298 319 284 294 311 295 347 309 329 319 328 305 314 338 338 339 328 310 310 314 343 334 321 333 316 328 327
242 262 252 257 269 274 261 270 284 270 272 299 280 280 281 283 281 291 305 299 310 320 284 283 323 337 340 291 295 329 307 320 306 339 341 309 318 321 301 306 326 294 331 332 316 330 325
258 247 249 255 262 263 270 265 279 268 295 284 259 273 278 304 304 281 296 301 325 291 286 332 333 328 308 338 340 299 333 325 332 333 301 331 296 317 334 306 298 299 337 333 336 329 332
253 249 250 251 253 260 261 276 260 281 272 270 273 275 295 297 293 290 302 311 319 324 301 330 286 319 334 321 327 309 315 315 329 318 324 304 331 326 328 334 314 328 324 333 332 308 315
257 254 253 252 270 259 258 260 269 267 268 275 278 273 276 280 300 288 297 308 285 310 303 324 329 306 291 330 308 310 327 318 308 321 299 319 301 298 313 296 318 325 312 322 332 303 318
252 255 254 254 262 256 258 259 261 264 264 276 270 273 287 290 292 277 278 304 308 306 315 315 318 293 324 317 322 325 302 321 318 318 329 326 328 328 332 333 326 314 308 328 324 332 327
255 253 259 260 257 259 259 262 264 266 265 273 273 281 270 288 276 297 298 306 296 307 306 306 310 299 297 305 292 309 314 299 313 318 318 327 325 317 331 325 296 318 327 331 314 334 327
263 254 261 262 260 263 259 261 260 263 266 269 271 271 280 282 286 283 297 302 293 309 310 308 300 305 300 313 306 312 308 304 317 319 308 319 325 319 322 323 320 318 316 328 303 329 314
253 259 255 259 252 260 263 263 262 265 266 270 269 273 274 282 275 281 286 281 290 288 294 305 288 303 312 303 305 310 302 315 314 317 306 314 320 321 315 326 315 323 324 297 307 299 301
244 255 270 259 260 262 265 263 267 269 273 269 267 274 269 279 267 273 277 293 286 300 301 293 301 304 292 312 311 311 297 299 314 311 301 314 318 311 313 319 310 325 331 330 328 310 310
260 254 255 258 258 254 265 266 269 270 269 271 271 271 276 266 273 276 285 276 295 293 289 302 304 305 298 299 301 296 310 304 309 308 309 316 320 302 321 307 322 330 327 318 312 316 317
256 248 258 259 254 257 258 266 268 263 266 273 263 262 273 262 267 285 279 288 288 288 293 287 292 298 293 295 301 309 297 299 309 307 309 310 312 299 307 318 323 329 307 326 312 314 313
256 260 259 248 265 259 262 268 269 255 263 265 273 261 267 271 279 280 284 283 286 289 298 297 286 290 298 295 294 301 304 297 305 307 316 298 310 301 321 324 327 328 320 318 312 310 311
255 258 256 261 260 259 248 268 270 269 268 274 257 273 262 280 282 283 274 274 292 290 294 289 299 297 300 302 304 304 303 292 311 304 305 301 316 320 325 321 325 325 312 323 305 312 313
248 258 248 260 258 264 254 252 265 266 268 273 273 274 277 279 282 284 287 283 291 293 294 293 293 289 302 296 299 299 305 299 313 304 310 307 305 323 325 322 321 323 320 312 314 315 314
255 256 260 261 259 264 258 255 265 265 266 272 270 278 268 271 277 277 282 281 283 290 286 291 292 299 295 303 304 301 305 314 303 301 318 315 322 305 322 310 315 320 310 315 313 315 313
252 257 256 251 260 258 262 266 268 271 269 262 269 277 278 281 281 283 278 286 287 291 288 297 297 300 288 292 311 290 305 312 316 290 318 320 315 319 302 314 319 318 315 314 314 313 314
249 252 254 260 254 260 268 271 271 268 261 272 276 277 280 284 279 287 290 279 293 295 299 300 303 303 281 282 310 312 315 314 302 292 317 316 313 316 302 317 315 310 311 313 313 311 308
248 253 254 258 260 265 265 268 270 271 274 273 279 280 281 283 285 283 285 291 293 299 295 284 305 297 306 309 307 312 304 311 313 314 315 312 313 306 316 309 311 308 311 311 312 309 308
247 248 251 255 260 263 261 266 263 267 269 275 274 277 277 282 281 286 290 291 294 297 291 300 297 299 299 304 308 308 297 295 302 311 308 311 312 314 305 307 311 309 312 312 309 308 309
246 246 254 254 257 259 262 266 267 268 270 273 273 275 277 279 284 287 291 294 293 292 295 296 297 303 304 304 294 297 308 306 302 310 309 311 313 307 304 306 308 312 311 309 308 310 313